SVRATOUCH Weather Reports


Display with metric or nautical units.
time (UTC)temp
F
wind
direction
speed
MPH
gust
MPH
rain 1hr
in
rain 24hr
in
rain mn
in
humidity
%
barometer
mb
20260905172110 61 340 9.0 0.0 0.00 0.00 0.00 55
20260905162435 63 300 9.0 0.0 0.00 0.00 0.00 55
20260905151939 63 310 12.0 0.0 0.00 0.00 0.00 55
20260905141908 63 290 14.0 0.0 0.00 0.00 0.00 55
20260905132234 63 280 18.0 0.0 0.00 0.00 0.00 51
20260905122117 63 280 18.0 0.0 0.00 0.00 0.00 55
20260905112039 63 290 18.0 0.0 0.00 0.00 0.00 59
20260905102455 61 270 20.0 0.0 0.00 0.00 0.00 67
20260905092101 57 280 12.0 0.0 0.00 0.00 0.00 76
20260905082053 55 280 16.0 0.0 0.00 0.00 0.00 87
20260905072353 54 270 14.0 0.0 0.00 0.00 0.00 93
20260905062053 52 270 16.0 0.0 0.00 0.00 0.00 93
20260905052051 52 280 14.0 0.0 0.00 0.00 0.00 93
20260905042454 55 290 9.0 0.0 0.00 0.00 0.00 93
20260905032052 55 320 5.0 0.0 0.00 0.00 0.00 93
20260905022052 57 330 7.0 0.0 0.00 0.00 0.00 87
20260905012353 57 340 9.0 0.0 0.00 0.00 0.00 87
20260905002107 61 360 18.0 29.0 0.00 0.00 0.00 77
20260904232139 70 270 16.0 0.0 0.00 0.00 0.00 56
20260904222524 68 250 12.0 0.0 0.00 0.00 0.00 60
20260904212052 70 250 12.0 0.0 0.00 0.00 0.00 56
20260904202050 68 250 12.0 0.0 0.00 0.00 0.00 60
20260904192339 70 230 9.0 0.0 0.00 0.00 0.00 56
20260904182108 72 260 12.0 0.0 0.00 0.00 0.00 53